Weather History for San Antonio, TX

Change the Weather History Date:

Tuesday, March 5, 2013

  Actual Average Record
Temperature  
Mean Temperature 55 °F 60 °F  
Max Temperature 69 °F 71 °F 94 °F (1991)
Min Temperature 41 °F 48 °F 26 °F (1966)
Degree Days  
Heating Degree Days 10 7  
Month to date heating degree days 43 36  
Since 1 July heating degree days 1037 1337  
Cooling Degree Days 0 1  
Month to date cooling degree days 1 5  
Year to date cooling degree days 41 31  
Growing Degree Days 6 (Base 50)    
Moisture  
Dew Point 25 °F    
Average Humidity 48    
Maximum Humidity 83    
Minimum Humidity 13    
Precipitation  
Precipitation 0.00 in 0.09 in 1.21 in (1935)
Month to date precipitation 0.00 0.39  
Year to date precipitation 2.93 3.94  
Snow  
Snow 0.00 in - - ()
Month to date snowfall 0.0  
Since 1 July snowfall T  
Snow Depth 0.00 in    
Sea Level Pressure  
Sea Level Pressure 30.17 in    
Wind  
Wind Speed 14 mph (North)    
Max Wind Speed 33 mph    
Max Gust Speed 41 mph    
Visibility 10 miles    
Events      
T = Trace of Precipitation, MM = Missing Value Source: NWS Daily Summary

Daily Weather History Graph

Daily Weather History Graph

Search for Another Location

Airport:

Trip Planner

Search our weather history database for the weather conditions in past years. The results will help you decide how hot, cold, wet, or windy it might be!

Date:

Astronomy

Mar. 05, 2013 Rise Set
Actual Time 6:54 AM CST 6:36 PM CST
Civil Twilight 6:30 AM CST 6:59 PM CST
Nautical Twilight 6:03 AM CST 7:27 PM CST
Astronomical Twilight 5:35 AM CST 7:55 PM CST
Moon 1:49 AM CST (3/5) 12:36 PM CST (3/5)
Length of Visible Light 12h 29m
Length of Day
11h 41m
Last Quarter, 40% of the Moon is Illuminated
Mar 5
Last Quarter
Mar 11
New
Mar 19
First Quarter
Mar 27
Full
Apr 2
Last Quarter

Hourly Weather History & Observations

Time (CST) Temp. Windchill Dew Point Humidity Pressure Visibility Wind Dir Wind Speed Gust Speed Precip Events Conditions
1:51 AM 55.0 °F - 46.9 °F 74% 29.78 in 10.0 mi NW 3.5 mph - N/A   Partly Cloudy
2:51 AM 54.0 °F - 48.0 °F 80% 29.78 in 10.0 mi Calm Calm - N/A   Clear
3:48 AM 57.2 °F - 53.6 °F 88% 29.93 in 10.0 mi North 21.9 mph 33.4 mph N/A   Partly Cloudy
3:51 AM 60.1 °F - 54.0 °F 80% 29.88 in 10.0 mi North 12.7 mph 33.4 mph N/A   Partly Cloudy
4:51 AM 57.0 °F - 41.0 °F 55% 29.96 in 10.0 mi North 28.8 mph 40.3 mph N/A   Scattered Clouds
5:51 AM 53.1 °F - 36.0 °F 52% 30.03 in 10.0 mi North 31.1 mph 41.4 mph N/A   Partly Cloudy
6:51 AM 51.1 °F - 35.1 °F 54% 30.09 in 10.0 mi North 24.2 mph 41.4 mph N/A   Scattered Clouds
7:51 AM 51.8 °F - 33.8 °F 50% 30.17 in 10.0 mi NNE 23.0 mph 31.1 mph N/A   Mostly Cloudy
8:51 AM 54.0 °F - 30.9 °F 41% 30.18 in 10.0 mi North 24.2 mph 35.7 mph N/A   Mostly Cloudy
9:51 AM 55.9 °F - 26.1 °F 32% 30.22 in 10.0 mi NNE 26.5 mph 35.7 mph N/A   Mostly Cloudy
10:51 AM 59.0 °F - 21.0 °F 23% 30.25 in 10.0 mi North 21.9 mph 35.7 mph N/A   Scattered Clouds
11:51 AM 63.0 °F - 19.9 °F 19% 30.27 in 10.0 mi NNE 17.3 mph 25.3 mph N/A   Scattered Clouds
12:51 PM 64.9 °F - 19.0 °F 17% 30.26 in 10.0 mi North 18.4 mph 27.6 mph N/A   Scattered Clouds
1:51 PM 66.9 °F - 19.0 °F 16% 30.24 in 10.0 mi North 18.4 mph 25.3 mph N/A   Scattered Clouds
2:51 PM 68.0 °F - 17.1 °F 14% 30.23 in 10.0 mi NNE 13.8 mph 24.2 mph N/A   Mostly Cloudy
3:51 PM 68.0 °F - 16.0 °F 14% 30.22 in 10.0 mi North 10.4 mph 23.0 mph N/A   Mostly Cloudy
4:51 PM 66.9 °F - 15.1 °F 14% 30.23 in 10.0 mi North 12.7 mph - N/A   Mostly Cloudy
5:51 PM 64.0 °F - 12.9 °F 14% 30.24 in 10.0 mi North 11.5 mph - N/A   Mostly Cloudy
6:51 PM 60.1 °F - 10.0 °F 14% 30.26 in 10.0 mi North 8.1 mph - N/A   Partly Cloudy
7:51 PM 57.0 °F - 10.9 °F 16% 30.27 in 10.0 mi NNE 4.6 mph - N/A   Partly Cloudy
8:51 PM 53.1 °F - 10.0 °F 18% 30.29 in 10.0 mi NNE 5.8 mph - N/A   Partly Cloudy
9:51 PM 46.0 °F 43.9 °F 17.1 °F 31% 30.32 in 10.0 mi NW 4.6 mph - N/A   Partly Cloudy
10:51 PM 44.1 °F 40.8 °F 17.1 °F 34% 30.33 in 10.0 mi NW 5.8 mph - N/A   Partly Cloudy
11:51 PM 43.0 °F 40.3 °F 15.1 °F 32% 30.34 in 10.0 mi WNW 4.6 mph - N/A   Partly Cloudy